TimeCST,TemperatureF,Dew PointF,Humidity,Sea Level PressureIn,VisibilityMPH,Wind Direction,Wind SpeedMPH,Gust SpeedMPH,PrecipitationIn,Events,Conditions,WindDirDegrees,DateUTC
12:54 AM,19.0,15.1,85,30.17,10.0,Calm,Calm,-,N/A,,Mostly Cloudy,0,2013-02-25 06:54:00
1:54 AM,18.0,15.1,88,30.17,10.0,Calm,Calm,-,N/A,,Partly Cloudy,0,2013-02-25 07:54:00
2:54 AM,17.1,12.9,84,30.17,8.0,Calm,Calm,-,N/A,,Partly Cloudy,0,2013-02-25 08:54:00
3:54 AM,16.0,12.0,84,30.17,7.0,Calm,Calm,-,N/A,,Partly Cloudy,0,2013-02-25 09:54:00
4:54 AM,17.1,12.9,84,30.19,7.0,Calm,Calm,-,N/A,,Scattered Clouds,0,2013-02-25 10:54:00
5:54 AM,17.1,14.0,88,30.20,7.0,Calm,Calm,-,N/A,,Scattered Clouds,0,2013-02-25 11:54:00
6:54 AM,17.1,14.0,88,30.18,5.0,Calm,Calm,-,N/A,,Mostly Cloudy,0,2013-02-25 12:54:00
7:54 AM,21.9,18.0,85,30.18,8.0,Calm,Calm,-,N/A,,Scattered Clouds,0,2013-02-25 13:54:00
8:54 AM,28.9,24.1,82,30.19,9.0,Calm,Calm,-,N/A,,Partly Cloudy,0,2013-02-25 14:54:00
9:54 AM,30.9,23.0,72,30.18,9.0,SSE,9.2,-,N/A,,Partly Cloudy,150,2013-02-25 15:54:00
10:54 AM,34.0,25.0,70,30.17,10.0,SSE,6.9,-,N/A,,Partly Cloudy,150,2013-02-25 16:54:00
11:54 AM,36.0,26.1,67,30.17,10.0,SSE,5.8,-,N/A,,Partly Cloudy,150,2013-02-25 17:54:00
12:54 PM,37.0,25.0,62,30.14,10.0,SSE,8.1,-,N/A,,Partly Cloudy,150,2013-02-25 18:54:00
1:54 PM,37.9,26.1,62,30.13,10.0,South,5.8,-,N/A,,Clear,190,2013-02-25 19:54:00
2:54 PM,39.0,25.0,57,30.12,10.0,South,4.6,-,N/A,,Partly Cloudy,170,2013-02-25 20:54:00
3:54 PM,39.0,25.0,57,30.10,10.0,SE,6.9,-,N/A,,Partly Cloudy,140,2013-02-25 21:54:00
4:54 PM,37.9,26.1,62,30.08,10.0,NE,8.1,-,N/A,,Scattered Clouds,50,2013-02-25 22:54:00
5:54 PM,36.0,26.1,67,30.08,8.0,NE,10.4,-,N/A,,Mostly Cloudy,40,2013-02-25 23:54:00
6:54 PM,36.0,27.0,70,30.07,8.0,NE,11.5,-,N/A,,Mostly Cloudy,50,2013-02-26 00:54:00
7:54 PM,35.1,26.1,70,30.04,10.0,ENE,10.4,-,N/A,,Overcast,60,2013-02-26 01:54:00
8:54 PM,34.0,26.1,73,30.06,10.0,ENE,6.9,-,N/A,,Overcast,60,2013-02-26 02:54:00
9:54 PM,33.1,26.1,75,30.07,10.0,East,4.6,-,N/A,,Overcast,80,2013-02-26 03:54:00
10:54 PM,33.1,26.1,75,30.03,10.0,East,12.7,-,N/A,,Overcast,80,2013-02-26 04:54:00
11:54 PM,33.1,27.0,78,29.99,10.0,ENE,13.8,-,N/A,,Overcast,70,2013-02-26 05:54:00